Location: Cran-Gévrier
(45.9039°N, 6.1012°E)
Time: 11:38:08
(UTC+00:00)

USA 281 - Pass Details

Date: 09 February 2023
Orbit: 1079 x 1080 km, 106.0° (Epoch: 19 March)

Event Time Altitude Azimuth Distance (km) Brightness Sun altitude
Rises 17:22:05 0° 21° (NNE) 3,890 5.8 -5.7°
Reaches altitude 10° 17:24:40 10° 17° (NNE) 2,931 5.2 -6.2°
Maximum altitude 17:30:59 51° 303° (WNW) 1,331 4.1 -7.2°
Drops below altitude 10° 17:37:16 10° 230° (SW) 2,915 6.6 -8.3°
Sets 17:39:50 0° 225° (SW) 3,867 7.2 -8.7°
